Flag for U.S.A. Weather past 2 weeks in Sunrise Manor, Nevada, U.S.A.

Now
75 °F

Clear.


Feels Like: 77 °F
Forecast: 71 / 95 °F
Wind: 8 mph from East

Location: Nellis Air Force Base

Current Time: Aug 27, 2014 at 6:12:13 AM

Latest Report: Aug 27, 2014 at 4:58 AM


Visibility: 10 mi

Pressure: 29.95 "Hg

Humidity: 37%

Dew point: 47 °F

Location of Sunrise ManorLocation

Historic Weather in Sunrise Manor — Graph

°F

Sunrise Manor temperature yesterday

Maximum temperature yesterday: 96 °F (at 3:58 PM)
Minimum temperature yesterday: 80 °F (at 11:58 PM)
Average temperature yesterday: 87 °F

Past Weeks' High & Low Weather Summary

 TemperatureHumidityPressure
High106 °F (Aug 17, 3:58 PM)74% (Aug 19, 7:58 AM)29.96 "Hg (Aug 19, 7:58 AM)
Low71 °F (Aug 16, 4:58 AM)5% (Aug 15, 1:58 PM)29.62 "Hg (Aug 24, 6:58 PM)
Average87 °F29%29.80 "Hg
* Reported Aug 12 4:58 AM — Aug 27 4:58 AM, Sunrise Manor, Weather by CustomWeather, © 2014

Note: Actual official high and low records may vary slightly from our data, if they occured in-between our weather recording intervals... More about our weather records

Advertising

Sunrise Manor weather history for previous 24 hours

 ConditionsComfort  
Time TempWeatherWind HumidityBarometerVisibility
4:58 AM
Aug 27
75 °FClear.8 mph37%29.95 "Hg10 mi
3:58 AM75 °FClear.9 mph38%29.94 "Hg10 mi
2:58 AM77 °FClear.12 mph36%29.93 "Hg10 mi
1:58 AM78 °FClear.8 mph34%29.92 "Hg10 mi
12:58 AM79 °FClear.15 mph33%29.90 "Hg10 mi
11:58 PM
Aug 26
80 °FClear.20 mph32%29.89 "Hg10 mi
10:58 PM83 °FClear.17 mph23%29.88 "Hg10 mi
9:58 PM84 °FClear.12 mph16%29.86 "Hg10 mi
8:58 PM89 °FClear.No wind14%29.84 "Hg10 mi
7:58 PM90 °FSunny.12 mph13%29.81 "Hg10 mi
6:58 PM92 °FSunny.15 mph12%29.78 "Hg10 mi
5:58 PM94 °FSunny.17 mph12%29.76 "Hg10 mi
4:58 PM95 °FSunny.14 mph9%29.76 "Hg10 mi
3:58 PM96 °FSunny.15 mph10%29.77 "Hg10 mi
2:58 PM95 °FSunny.24 mph14%29.78 "Hg10 mi
1:58 PM94 °FSunny.21 mph16%29.80 "Hg10 mi
12:58 PM92 °FSunny.18 mph18%29.83 "Hg10 mi
11:58 AM90 °FSunny.13 mph22%29.85 "Hg10 mi
10:58 AM89 °FSunny.10 mph23%29.88 "Hg10 mi
9:58 AM86 °FSunny.7 mph32%29.88 "Hg10 mi
8:58 AM82 °FPassing clouds.5 mph35%29.88 "Hg10 mi
7:58 AM82 °FPassing clouds.10 mph33%29.86 "Hg10 mi
6:58 AM80 °FPassing clouds.9 mph35%29.85 "Hg10 mi
Weather by CustomWeather, © 2014

See weather overviewHow to use our weather pages